Simultaneous Nadir Overpasses (SNOs) Predictions

Prediction of SNOs between NOAA-20 and METOP-C Satellite Orbit:

Table of predicted SNOs for the next 14.0 days since TLE Epoch: 7/29/2023
Index Date (NOAA-20) Time (NOAA-20) Lat,Lon (NOAA-20) SZA (NOAA-20 ) Date (METOP-C) Time (METOP-C) Lat,Lon (METOP-C) SZA (METOP-C ) Distance(km) Time Diff (sec)
1 08/10/2023 05:37:35 -73.64, -94.30 121.72 08/10/2023 05:38:41 -73.61, -91.18 121.94 97.80 66
2 08/10/2023 06:28:17 73.47, 73.42 58.09 08/10/2023 06:29:25 73.40, 75.67 57.89 71.79 68
3 08/10/2023 07:18:59 -73.35,-119.00 122.03 08/10/2023 07:20:09 -73.28,-117.25 122.21 56.24 70
4 08/10/2023 08:09:41 73.17, 48.71 57.79 08/10/2023 08:10:52 73.12, 49.72 57.66 33.21 71
5 08/10/2023 09:00:23 -73.06,-143.73 122.34 08/10/2023 09:01:36 -73.01,-143.19 122.43 18.05 73
6 08/10/2023 09:51:05 72.87, 23.97 57.48 08/10/2023 09:52:18 72.89, 23.90 57.48 3.17 73
7 08/10/2023 10:41:50 -72.91,-168.79 122.48 08/10/2023 10:43:00 -72.88,-168.80 122.52 3.36 70
8 08/10/2023 11:32:35 72.88, -1.42 57.50 08/10/2023 11:33:40 72.87, -1.50 57.48 3.11 65
9 08/10/2023 12:23:20 -72.92, 165.82 122.45 08/10/2023 12:24:21 -72.90, 165.91 122.48 3.03 61
10 08/10/2023 13:14:05 72.89, -26.80 57.53 08/10/2023 13:15:01 72.89, -26.79 57.52 0.79 56
11 08/10/2023 14:04:49 -72.87, 140.54 122.48 08/10/2023 14:05:43 -72.88, 140.51 122.48 1.31 54
12 08/10/2023 14:55:35 72.89, -52.19 57.56 08/10/2023 14:56:23 72.87, -52.18 57.52 2.92 48
13 08/10/2023 15:46:19 -72.88, 115.16 122.45 08/10/2023 15:47:05 -72.85, 115.12 122.49 2.92 46
14 08/10/2023 16:37:05 72.90, -77.57 57.58 08/10/2023 16:37:44 72.89, -77.47 57.56 3.56 39
15 08/10/2023 17:27:49 -72.88, 89.77 122.43 08/10/2023 17:28:26 -72.88, 89.83 122.44 2.03 37
16 08/10/2023 18:18:34 72.85,-102.85 57.55 08/10/2023 18:19:06 72.86,-102.86 57.56 1.35 32
17 08/10/2023 19:09:18 -72.84, 64.49 122.46 08/10/2023 19:09:48 -72.85, 64.44 122.45 2.37 30
18 08/10/2023 20:00:04 72.86,-128.24 57.58 08/10/2023 20:00:28 72.84,-128.26 57.56 2.26 24
19 08/10/2023 20:50:48 -72.84, 39.11 122.43 08/10/2023 20:51:10 -72.83, 39.04 122.45 2.82 22
20 08/10/2023 21:41:34 72.86,-153.63 57.61 08/10/2023 21:41:49 72.86,-153.54 57.60 2.70 15
21 08/10/2023 22:32:18 -72.85, 13.72 122.40 08/10/2023 22:32:31 -72.85, 13.76 122.41 1.18 13
22 08/10/2023 23:23:03 72.82,-178.91 57.58 08/10/2023 23:23:11 72.84,-178.94 57.60 2.29 8
23 08/11/2023 00:13:47 -72.80, -11.56 122.43 08/11/2023 00:13:53 -72.82, -11.64 122.41 3.41 6
24 08/11/2023 01:04:33 72.82, 155.71 57.61 08/11/2023 01:04:33 72.81, 155.67 57.59 1.97 0
25 08/11/2023 01:55:17 -72.81, -36.95 122.40 08/11/2023 01:55:15 -72.80, -37.03 122.41 3.09 2
26 08/11/2023 02:46:03 72.83, 130.32 57.63 08/11/2023 02:45:54 72.83, 130.38 57.64 2.03 9
27 08/11/2023 03:36:47 -72.81, -62.33 122.38 08/11/2023 03:36:36 -72.82, -62.32 122.37 0.92 11
28 08/11/2023 04:27:32 72.78, 105.04 57.60 08/11/2023 04:27:16 72.81, 104.99 57.63 3.28 16
29 08/11/2023 05:18:17 -72.82, -87.72 122.35 08/11/2023 05:17:58 -72.80, -87.72 122.37 2.70 19
30 08/11/2023 06:09:02 72.79, 79.65 57.63 08/11/2023 06:08:38 72.78, 79.59 57.63 2.19 24
31 08/11/2023 06:59:47 -72.83,-113.11 122.32 08/11/2023 06:59:19 -72.82,-113.00 122.33 3.38 28
32 08/11/2023 07:50:32 72.80, 54.27 57.66 08/11/2023 07:49:59 72.81, 54.30 57.67 1.78 33
33 08/11/2023 08:41:16 -72.78,-138.39 122.35 08/11/2023 08:40:41 -72.79,-138.40 122.33 1.55 35
34 08/11/2023 09:32:02 72.80, 28.88 57.68 08/11/2023 09:31:21 72.78, 28.91 57.67 2.39 41
35 08/11/2023 10:22:46 -72.79,-163.77 122.33 08/11/2023 10:22:03 -72.77,-163.79 122.33 2.13 43
36 08/11/2023 11:13:31 72.76, 3.60 57.66 08/11/2023 11:12:43 72.75, 3.52 57.67 2.79 48
37 08/11/2023 12:04:16 -72.79, 170.84 122.30 08/11/2023 12:03:24 -72.79, 170.92 122.29 2.56 52
38 08/11/2023 12:55:01 72.76, -21.79 57.68 08/11/2023 12:54:04 72.78, -21.77 57.71 2.07 57
39 08/11/2023 13:45:45 -72.75, 145.56 122.33 08/11/2023 13:44:46 -72.77, 145.53 122.29 2.45 59
40 08/11/2023 14:36:31 72.77, -47.17 57.71 08/11/2023 14:35:26 72.75, -47.17 57.71 1.53 65
41 08/11/2023 15:27:15 -72.75, 120.17 122.30 08/11/2023 15:26:08 -72.74, 120.13 122.30 1.96 67
42 08/11/2023 16:18:01 72.77, -72.56 57.74 08/11/2023 16:16:47 72.78, -72.45 57.75 3.46 74
43 08/11/2023 17:08:44 -72.71, 94.89 122.33 08/11/2023 17:07:30 -72.71, 94.74 122.30 5.15 74
44 08/11/2023 17:59:25 72.52, -97.42 57.48 08/11/2023 17:58:13 72.50, -98.37 57.53 31.62 72
45 08/11/2023 18:50:07 -72.41, 70.12 122.64 08/11/2023 18:48:56 -72.43, 68.83 122.52 43.41 71
46 08/11/2023 19:40:49 72.22,-122.20 57.18 08/11/2023 19:39:40 72.21,-124.26 57.30 69.85 69
47 08/11/2023 20:31:31 -72.11, 45.33 122.94 08/11/2023 20:30:24 -72.10, 42.85 122.79 85.03 67



Historial Predications of SNOs between NOAA-20 and METOP-C
